DW8548 Weather Reports


time (UTC)temp
F
wind
direction
speed
knots
gust
knots
rain 1hr
in
rain 24hr
in
rain mn
in
humidity
%
barometer
mb
20260902094601 59 285 0.9 6.1 0.00 0.00 0.00 84 1020.8
20260902093105 60 286 0.9 4.3 0.00 0.00 0.00 81 1020.7
20260902091603 60 296 0.9 3.5 0.00 0.00 0.00 80 1020.6
20260902090101 60 300 0.9 5.2 0.00 0.00 0.00 81 1020.5
20260902084603 60 279 0.9 3.5 0.00 0.00 0.00 84 1020.3
20260902083101 60 242 0.9 8.7 0.00 0.00 0.00 81 1020.2
20260902081558 62 258 2.6 7.8 0.00 0.00 0.00 76 1020.3
20260902074601 64 286 2.6 6.1 0.00 0.00 0.00 71 1020.4
20260902073059 63 254 0.9 4.3 0.00 0.00 0.00 72 1020.4
20260902071603 61 298 0.9 6.1 0.00 0.00 0.00 79 1020.4
20260902070108 61 284 1.7 7.0 0.00 0.00 0.00 78 1020.9
20260902064606 62 284 2.6 8.7 0.00 0.00 0.00 75 1020.9
20260902063119 64 313 1.7 8.7 0.00 0.00 0.00 70 1020.7
20260902061625 63 331 1.7 7.8 0.00 0.00 0.00 75 1020.6
20260902060128 64 207 1.7 8.7 0.00 0.00 0.00 68 1020.6
20260902054602 64 240 2.6 9.6 0.00 0.00 0.00 67 1020.8
20260902053113 64 245 3.5 7.8 0.00 0.00 0.00 68 1021.0
20260902051617 65 263 1.7 4.3 0.00 0.00 0.00 70 1021.2
20260902050114 63 322 1.7 6.1 0.00 0.00 0.00 68 1021.6
20260902044636 63 299 0.9 3.5 0.00 0.00 0.00 70 1021.8
20260902043105 62 284 1.7 4.3 0.00 0.00 0.00 74 1022.1
20260902041615 61 355 0.0 5.2 0.00 0.00 0.00 79 1022.3
20260902040111 62 331 0.9 4.3 0.00 0.00 0.00 69 1022.2
20260902034603 63 0 2.6 7.0 0.00 0.00 0.00 69 1022.2
20260902033104 64 306 0.9 7.0 0.00 0.00 0.00 68 1022.3
20260902031617 64 258 2.6 7.0 0.00 0.00 0.00 69 1022.5
20260902030108 62 205 1.7 7.0 0.00 0.00 0.00 69 1022.6
20260902024601 62 343 0.9 6.1 0.00 0.00 0.00 71 1022.7
20260902023101 61 254 3.5 7.8 0.00 0.00 0.00 70 1022.7
20260902021603 61 277 2.6 8.7 0.00 0.00 0.00 72 1022.8
20260902014600 61 274 2.6 7.8 0.00 0.00 0.00 69 1022.7
20260902013110 60 261 1.7 7.0 0.00 0.00 0.00 72 1022.7
20260902011602 62 261 2.6 8.7 0.00 0.00 0.00 67 1022.5
20260902010105 61 246 1.7 6.1 0.00 0.00 0.00 65 1022.5
20260902004607 61 302 1.7 8.7 0.00 0.00 0.00 63 1022.4
20260902003106 60 248 1.7 3.5 0.00 0.00 0.00 65 1022.3
20260902001605 58 0 0.0 2.6 0.00 0.00 0.00 71 1022.3
20260902000105 56 0 0.0 0.9 0.00 0.00 0.00 77 1022.1
20260901234609 56 0 0.0 0.0 0.00 0.00 0.00 77 1021.8
20260901233105 55 0 0.0 0.0 0.00 0.00 0.00 78 1021.7
20260901231616 55 0 0.0 0.0 0.00 0.00 0.00 79 1021.8
20260901230110 54 0 0.0 1.7 0.00 0.00 0.00 79 1022.1
20260901224605 54 0 0.0 0.9 0.00 0.00 0.00 78 1021.8
20260901223106 54 0 0.0 1.7 0.00 0.00 0.00 76 1021.6
20260901221612 55 0 0.0 0.9 0.00 0.00 0.00 73 1021.4
20260901220108 56 0 0.0 0.0 0.00 0.00 0.00 69 1021.4
20260901214601 56 0 0.0 0.9 0.00 0.00 0.00 65 1021.5
20260901213102 57 252 0.0 2.6 0.00 0.00 0.00 64 1021.4
20260901211603 56 0 0.0 2.6 0.00 0.00 0.00 66 1021.4
20260901204607 57 0 0.0 1.7 0.00 0.00 0.00 68 1021.3
20260901203102 57 0 0.9 3.5 0.00 0.00 0.00 68 1021.3
20260901201601 57 259 1.7 3.5 0.00 0.00 0.00 68 1021.4
20260901194606 56 0 0.0 0.9 0.00 0.00 0.00 67 1021.5
20260901193104 56 0 0.0 2.6 0.00 0.00 0.00 68 1021.4
20260901191604 56 0 0.0 1.7 0.00 0.00 0.00 68 1021.6
20260901190104 56 0 0.0 0.9 0.00 0.00 0.00 69 1021.7
20260901184607 56 0 0.0 1.7 0.00 0.00 0.00 69 1021.9
20260901183121 56 0 0.0 0.9 0.00 0.00 0.00 71 1022.0
20260901181602 55 0 0.0 0.9 0.00 0.00 0.00 75 1022.0
20260901180105 55 0 0.0 0.9 0.00 0.00 0.00 78 1022.1
20260901174606 55 0 0.0 0.0 0.00 0.00 0.00 80 1022.1
20260901173151 55 0 0.0 0.0 0.00 0.00 0.00 82 1022.2
20260901171606 54 0 0.0 0.0 0.00 0.00 0.00 82 1022.2
20260901170108 55 0 0.0 0.0 0.00 0.00 0.00 81 1022.2
20260901164610 55 0 0.0 0.0 0.00 0.00 0.00 80 1022.2
20260901163119 55 0 0.0 0.0 0.00 0.00 0.00 80 1022.3
20260901161607 55 0 0.0 0.0 0.00 0.00 0.00 79 1022.4
20260901160104 55 0 0.0 0.9 0.00 0.00 0.00 80 1022.5
20260901154606 55 0 0.0 0.9 0.00 0.00 0.00 81 1022.6
20260901153103 55 206 0.0 0.9 0.00 0.00 0.00 79 1022.6
20260901151602 55 0 0.0 0.0 0.00 0.00 0.00 79 1022.6
20260901150107 55 0 0.0 0.0 0.00 0.00 0.00 78 1022.7
20260901144606 55 0 0.0 0.0 0.00 0.00 0.00 80 1022.9
20260901143109 55 0 0.0 0.0 0.00 0.00 0.00 79 1023.1
20260901141614 55 0 0.0 0.0 0.00 0.00 0.00 80 1023.2
20260901140106 55 0 0.0 0.0 0.00 0.00 0.00 80 1023.4
20260901134606 56 0 0.0 0.0 0.00 0.00 0.00 78 1023.4
20260901133106 56 0 0.0 0.0 0.00 0.00 0.00 75 1023.5
20260901131601 56 0 0.0 0.0 0.00 0.00 0.00 76 1023.5
20260901130107 56 0 0.0 0.0 0.00 0.00 0.00 75 1023.5
20260901124605 56 0 0.0 0.0 0.00 0.00 0.00 74 1023.6
20260901123105 56 0 0.0 0.0 0.00 0.00 0.00 74 1023.5
20260901121604 56 0 0.0 0.0 0.00 0.00 0.00 73 1023.6
20260901120110 56 0 0.0 0.0 0.00 0.00 0.00 73 1023.5
20260901114621 56 0 0.0 0.0 0.00 0.00 0.00 72 1023.4
20260901113107 56 0 0.0 0.0 0.00 0.00 0.00 71 1023.5
20260901111609 56 0 0.0 0.0 0.00 0.00 0.00 71 1023.5
20260901110108 56 0 0.0 0.0 0.00 0.00 0.00 71 1023.3
20260901104605 57 0 0.0 1.7 0.00 0.00 0.00 71 1023.2
20260901103104 57 206 0.0 0.9 0.00 0.00 0.00 70 1023.3
20260901101609 57 0 0.0 0.9 0.00 0.00 0.00 69 1023.4